TimeEST,TemperatureF,Dew PointF,Humidity,Sea Level PressureIn,VisibilityMPH,Wind Direction,Wind SpeedMPH,Gust SpeedMPH,PrecipitationIn,Events,Conditions,WindDirDegrees,DateUTC
12:15 AM,36.5,16.3,44,29.66,10.0,West,6.9,-,N/A,,Mostly Cloudy,280,2012-12-22 05:15:00
12:35 AM,36.5,16.5,44,29.66,10.0,WNW,9.2,-,N/A,,Overcast,290,2012-12-22 05:35:00
12:55 AM,36.0,17.1,46,29.66,10.0,WNW,9.2,24.2,N/A,,Overcast,300,2012-12-22 05:55:00
1:15 AM,36.3,17.6,47,29.66,10.0,WNW,13.8,19.6,N/A,,Overcast,300,2012-12-22 06:15:00
1:35 AM,36.5,18.3,48,29.67,10.0,WNW,15.0,25.3,N/A,,Overcast,300,2012-12-22 06:35:00
1:55 AM,36.7,18.3,47,29.68,10.0,WNW,13.8,19.6,N/A,,Overcast,290,2012-12-22 06:55:00
2:15 AM,36.7,18.5,48,29.69,10.0,WNW,15.0,24.2,N/A,,Overcast,300,2012-12-22 07:15:00
2:35 AM,36.9,18.5,47,29.69,10.0,NW,16.1,21.9,N/A,,Overcast,310,2012-12-22 07:35:00
2:55 AM,36.5,19.0,49,29.70,10.0,WNW,9.2,-,N/A,,Overcast,300,2012-12-22 07:55:00
3:15 AM,36.7,19.2,49,29.71,10.0,WNW,10.4,17.3,N/A,,Overcast,300,2012-12-22 08:15:00
3:35 AM,36.1,20.3,53,29.72,10.0,West,8.1,17.3,N/A,,Overcast,280,2012-12-22 08:35:00
3:55 AM,36.0,21.4,55,29.73,10.0,WNW,9.2,20.7,N/A,,Overcast,300,2012-12-22 08:55:00
4:15 AM,35.6,22.8,60,29.74,10.0,WNW,6.9,-,N/A,,Overcast,300,2012-12-22 09:15:00
4:35 AM,34.9,23.5,63,29.74,10.0,West,6.9,-,N/A,,Overcast,280,2012-12-22 09:35:00
4:55 AM,35.6,22.3,58,29.76,10.0,West,4.6,-,N/A,,Overcast,270,2012-12-22 09:55:00
5:15 AM,35.6,22.6,59,29.77,10.0,WNW,18.4,27.6,N/A,,Overcast,300,2012-12-22 10:15:00
5:35 AM,35.2,23.0,61,29.78,10.0,NW,13.8,26.5,N/A,,Overcast,310,2012-12-22 10:35:00
5:55 AM,34.7,23.0,62,29.80,10.0,WNW,6.9,16.1,N/A,,Overcast,290,2012-12-22 10:55:00
6:15 AM,34.9,23.0,62,29.81,10.0,WNW,10.4,17.3,N/A,,Overcast,290,2012-12-22 11:15:00
6:35 AM,35.1,21.6,58,29.82,10.0,NW,9.2,-,N/A,,Overcast,310,2012-12-22 11:35:00
6:55 AM,35.6,20.5,54,29.84,10.0,WNW,16.1,21.9,N/A,,Overcast,300,2012-12-22 11:55:00
7:15 AM,35.8,20.5,54,29.84,10.0,WNW,19.6,23.0,N/A,,Overcast,300,2012-12-22 12:15:00
7:35 AM,35.6,21.0,55,29.85,10.0,WNW,13.8,24.2,N/A,,Overcast,290,2012-12-22 12:35:00
7:55 AM,35.8,20.5,54,29.87,10.0,NW,16.1,23.0,N/A,,Overcast,310,2012-12-22 12:55:00
8:15 AM,36.1,19.6,51,29.88,10.0,WNW,19.6,25.3,N/A,,Overcast,300,2012-12-22 13:15:00
8:35 AM,36.3,18.5,48,29.90,10.0,NW,21.9,28.8,N/A,,Mostly Cloudy,310,2012-12-22 13:35:00
8:55 AM,37.2,17.4,45,29.91,10.0,NW,21.9,32.2,N/A,,Scattered Clouds,310,2012-12-22 13:55:00
9:15 AM,37.8,17.4,44,29.92,10.0,NW,18.4,23.0,N/A,,Clear,320,2012-12-22 14:15:00
9:35 AM,38.7,17.6,43,29.93,10.0,NW,13.8,-,N/A,,Clear,310,2012-12-22 14:35:00
9:55 AM,38.8,17.2,42,29.94,10.0,NW,12.7,24.2,N/A,,Clear,320,2012-12-22 14:55:00
10:15 AM,39.7,17.6,41,29.95,10.0,NW,9.2,-,N/A,,Clear,320,2012-12-22 15:15:00
10:35 AM,40.1,16.7,39,29.94,10.0,WNW,10.4,19.6,N/A,,Clear,300,2012-12-22 15:35:00
10:55 AM,40.8,15.4,36,29.95,10.0,West,9.2,18.4,N/A,,Clear,270,2012-12-22 15:55:00
11:15 AM,41.2,15.4,35,29.94,10.0,West,11.5,19.6,N/A,,Clear,280,2012-12-22 16:15:00
11:35 AM,41.7,15.3,34,29.94,10.0,West,15.0,24.2,N/A,,Clear,280,2012-12-22 16:35:00
11:55 AM,41.7,15.1,34,29.94,10.0,West,13.8,19.6,N/A,,Clear,280,2012-12-22 16:55:00
12:15 PM,42.3,15.1,33,29.92,10.0,West,16.1,24.2,N/A,,Clear,280,2012-12-22 17:15:00
12:35 PM,43.2,15.1,32,29.93,10.0,WNW,16.1,25.3,N/A,,Clear,290,2012-12-22 17:35:00
12:55 PM,43.9,15.1,31,29.92,10.0,NW,10.4,20.7,N/A,,Clear,320,2012-12-22 17:55:00
1:15 PM,44.4,13.6,29,29.93,10.0,WNW,11.5,19.6,N/A,,Clear,300,2012-12-22 18:15:00
1:35 PM,44.4,12.9,28,29.93,10.0,WNW,9.2,20.7,N/A,,Clear,290,2012-12-22 18:35:00
1:55 PM,44.8,13.8,29,29.93,10.0,WNW,9.2,-,N/A,,Clear,290,2012-12-22 18:55:00
2:15 PM,45.5,13.5,27,29.93,10.0,West,12.7,16.1,N/A,,Clear,280,2012-12-22 19:15:00
2:35 PM,44.8,12.6,27,29.93,10.0,West,13.8,18.4,N/A,,Clear,280,2012-12-22 19:35:00
2:55 PM,44.1,12.6,28,29.93,10.0,WNW,8.1,17.3,N/A,,Clear,300,2012-12-22 19:55:00
3:15 PM,44.4,12.9,28,29.93,10.0,NW,10.4,-,N/A,,Clear,310,2012-12-22 20:15:00
3:35 PM,43.7,11.7,27,29.94,10.0,WNW,11.5,-,N/A,,Clear,300,2012-12-22 20:35:00
3:55 PM,43.7,12.4,28,29.94,10.0,NW,10.4,16.1,N/A,,Clear,310,2012-12-22 20:55:00
4:15 PM,42.8,12.4,29,29.94,10.0,WNW,8.1,-,N/A,,Clear,290,2012-12-22 21:15:00
4:35 PM,41.9,11.1,28,29.95,10.0,WNW,11.5,17.3,N/A,,Clear,290,2012-12-22 21:35:00
4:55 PM,40.8,10.9,29,29.96,10.0,WNW,9.2,-,N/A,,Clear,290,2012-12-22 21:55:00
5:15 PM,38.8,11.5,33,29.96,10.0,West,4.6,-,N/A,,Clear,260,2012-12-22 22:15:00
5:35 PM,36.5,13.1,38,29.97,10.0,ENE,3.5,-,N/A,,Clear,60,2012-12-22 22:35:00
5:55 PM,36.3,12.7,38,29.99,10.0,Calm,Calm,-,N/A,,Clear,0,2012-12-22 22:55:00
6:15 PM,36.1,12.7,38,29.99,10.0,Calm,Calm,-,N/A,,Clear,0,2012-12-22 23:15:00
6:35 PM,36.7,12.7,37,30.00,10.0,Calm,Calm,-,N/A,,Clear,0,2012-12-22 23:35:00
6:55 PM,34.9,14.2,43,30.00,10.0,Calm,Calm,-,N/A,,Clear,0,2012-12-22 23:55:00
7:15 PM,34.5,15.1,45,30.01,10.0,WSW,3.5,-,N/A,,Clear,240,2012-12-23 00:15:00
7:35 PM,32.7,16.7,52,30.01,10.0,SW,3.5,-,N/A,,Clear,230,2012-12-23 00:35:00
7:55 PM,32.7,16.5,51,30.01,10.0,Calm,Calm,-,N/A,,Clear,0,2012-12-23 00:55:00
8:15 PM,32.0,16.7,53,30.01,10.0,SSE,3.5,-,N/A,,Clear,160,2012-12-23 01:15:00
8:35 PM,32.0,16.2,52,30.01,10.0,South,3.5,-,N/A,,Clear,170,2012-12-23 01:35:00
8:55 PM,32.0,15.4,51,30.01,10.0,SW,5.8,-,N/A,,Clear,220,2012-12-23 01:55:00
9:15 PM,32.0,15.4,51,30.01,10.0,SW,5.8,-,N/A,,Clear,220,2012-12-23 02:15:00
9:35 PM,32.0,14.9,49,30.01,10.0,SW,6.9,-,N/A,,Clear,230,2012-12-23 02:35:00
9:55 PM,31.8,14.9,50,30.02,10.0,SW,6.9,-,N/A,,Clear,230,2012-12-23 02:55:00
10:15 PM,31.1,14.7,51,30.02,10.0,SW,6.9,-,N/A,,Clear,230,2012-12-23 03:15:00
10:35 PM,30.9,14.7,51,30.03,10.0,SW,5.8,-,N/A,,Clear,230,2012-12-23 03:35:00
10:55 PM,31.1,14.0,49,30.04,10.0,SW,5.8,-,N/A,,Clear,230,2012-12-23 03:55:00
11:15 PM,30.9,13.6,49,30.04,10.0,WSW,8.1,-,N/A,,Clear,240,2012-12-23 04:15:00
11:35 PM,31.8,12.9,46,30.05,10.0,WSW,9.2,-,N/A,,Clear,240,2012-12-23 04:35:00
11:55 PM,30.0,13.3,50,30.05,10.0,WSW,4.6,-,N/A,,Clear,240,2012-12-23 04:55:00